Location: ??? ???
(33.4974°N, 35.4618°E)
Time: 23:59:30
(UTC+00:00)

Cosmos 1302 Rocket - Visible Passes

Search period start: 01 March 2021 00:00
Search period end: 11 March 2021 00:00
Orbit: 757 x 776 km, 74.0° (Epoch: 01 March)

Date Brightness Start Highest point End Pass type
(mag) Time Alt. Az. Time Alt. Az. Time Alt. Az.
01 Mar 6.3 01:28:12 10° NNE 01:32:13 22° ENE 01:36:14 10° ESE visible
01 Mar 4.5 03:09:29 10° NW 03:14:18 37° W 03:19:06 10° SSW visible
01 Mar 4.3 15:59:46 10° SSW 16:04:56 76° WNW 16:10:09 10° NNE visible
02 Mar 6.9 00:52:14 10° NE 00:54:20 12° ENE 00:56:27 10° E visible
02 Mar 3.9 02:31:37 10° NNW 02:36:51 69° WSW 02:42:04 10° S visible
02 Mar 6.9 17:07:08 10° W 17:09:49 14° WNW 17:12:30 10° NNW visible
03 Mar 4.3 01:54:04 10° N 01:59:18 65° ENE 02:04:32 10° SSE visible
03 Mar 5.7 03:39:03 10° WNW 03:40:39 11° W 03:42:16 10° WSW visible
03 Mar 6.4 16:27:46 10° WSW 16:31:58 25° WNW 16:36:12 10° N visible
04 Mar 5.4 01:20:11 30° NE 01:21:40 35° ENE 01:26:28 10° SE visible
04 Mar 5.1 03:00:44 15° WNW 03:03:23 22° W 03:07:21 10° SSW visible
05 Mar 6.7 00:46:55 13° ESE 00:46:55 13° ESE 00:47:45 10° ESE visible
05 Mar 4.7 02:27:22 34° SW 02:27:22 34° SW 02:30:55 10° S visible
06 Mar 6.2 01:53:14 13° S 01:53:14 13° S 01:53:49 10° S visible
06 Mar 6.8 16:18:31 10° W 16:21:29 15° WNW 16:24:27 10° NNW visible
